Location: Colonie
(42.7179°N, 73.8335°W)
Time: 05:40:38
(UTC+00:00)

USA 307 - Pass Details

Date: 29 October 2020
Orbit: 569 x 579 km, 54.0° (Epoch: 23 November)

Event Time Altitude Azimuth Distance (km) Brightness Sun altitude
Rises 23:27:38 0° 309° (NW) 2,788 7.2 -18.2°
Reaches altitude 10° 23:29:55 10° 312° (NW) 1,885 6.2 -18.6°
Maximum altitude 23:34:11 68° 35° (NE) 618 2.8 -19.4°
Enters shadow 23:35:05 51° 96° (E) 724 3.0 -19.6°
